BMCB-8 Weather Reports


time (UTC)temp
C
wind
direction
speed
KPH
gust
KPH
rain 1hr
cm
rain 24hr
cm
rain mn
cm
humidity
%
barometer
mb
20260506185112 10 19 6.4 12.9 0.00 1.45 1.12 78 1011.1
20260506184104 10 23 6.4 9.7 0.00 1.47 1.12 78 1011.0
20260506183110 10 48 4.8 9.7 0.00 1.47 1.12 79 1010.9
20260506182113 10 45 6.4 9.7 0.00 1.50 1.12 79 1010.8
20260506181102 11 41 8.0 14.5 0.00 1.52 1.12 79 1010.6
20260506180111 11 36 8.0 14.5 0.00 1.55 1.12 78 1010.5
20260506175110 11 17 6.4 11.3 0.00 1.55 1.12 78 1010.3
20260506174106 11 12 6.4 14.5 0.00 1.57 1.12 79 1010.2
20260506173105 11 11 4.8 9.7 0.00 1.60 1.12 79 1010.1
20260506172110 11 8 4.8 6.4 0.00 1.60 1.12 80 1010.1
20260506171105 11 14 3.2 4.8 0.00 1.63 1.12 79 1009.9
20260506170100 11 23 6.4 9.7 0.00 1.65 1.12 80 1009.9
20260506165103 11 6 6.4 9.7 0.00 1.65 1.12 79 1009.9
20260506164058 11 314 9.7 14.5 0.00 1.65 1.12 79 1009.7
20260506163033 11 316 9.7 14.5 0.00 1.65 1.12 78 1009.7
20260506162104 11 316 11.3 16.1 0.00 1.65 1.12 78 1009.8
20260506161103 11 333 12.9 16.1 0.00 1.65 1.12 76 1009.7
20260506160033 11 334 12.9 16.1 0.00 1.65 1.12 76 1009.7
20260506155051 12 334 12.9 16.1 0.00 1.65 1.12 76 1009.7
20260506154045 12 333 11.3 19.3 0.00 1.65 1.12 77 1009.6
20260506153052 12 333 11.3 19.3 0.00 1.65 1.12 78 1009.6
20260506151023 11 330 6.4 9.7 0.00 1.65 1.12 82 1009.6
20260506145038 11 339 6.4 9.7 0.00 1.65 1.12 83 1009.6
20260506144051 11 339 6.4 9.7 0.00 1.65 1.12 86 1009.6
20260506143058 11 334 4.8 6.4 0.00 1.65 1.12 86 1009.7
20260506142041 11 327 6.4 8.0 0.00 1.65 1.12 86 1009.7
20260506141022 10 329 4.8 6.4 0.00 1.65 1.12 86 1009.8
20260506140107 10 329 4.8 6.4 0.00 1.65 1.12 85 1009.7
20260506135023 10 2 8.0 12.9 0.00 1.65 1.12 85 1009.7
20260506133059 10 25 6.4 11.3 0.00 1.65 1.12 84 1009.8
20260506132023 10 15 6.4 11.3 0.00 1.65 1.12 84 1009.8
20260506131100 10 15 6.4 11.3 0.00 1.65 1.12 83 1009.6
20260506130029 11 8 8.0 14.5 0.00 1.65 1.12 82 1009.6
20260506124022 10 354 12.9 19.3 0.00 1.65 1.12 82 1009.6
20260506123101 10 354 12.9 19.3 0.00 1.65 1.12 82 1009.4
20260506122022 10 3 11.3 19.3 0.00 1.65 1.12 85 1009.3
20260506121021 10 3 11.3 19.3 0.00 1.65 1.12 87 1009.3
20260506120056 10 350 9.7 19.3 0.00 1.65 1.12 89 1009.3
20260506114059 9 1 6.4 11.3 0.00 1.65 1.12 91 1009.4
20260506112100 10 357 11.3 19.3 0.00 1.65 1.12 91 1009.3
20260506105058 8 355 12.9 17.7 0.00 1.65 1.12 94 1009.5
20260506104052 8 355 12.9 19.3 0.03 1.65 1.12 95 1009.6
20260506103051 8 358 11.3 17.7 0.03 1.65 1.12 95 1009.5
20260506102100 8 4 11.3 20.9 0.05 1.65 1.12 96 1009.4
20260506101043 8 4 12.9 19.3 0.05 1.65 1.12 96 1009.3
20260506100051 8 8 11.3 19.3 0.05 1.65 1.12 97 1009.2
20260506095028 8 2 12.9 22.5 0.08 1.65 1.12 97 1009.1
20260506094058 8 2 12.9 22.5 0.10 1.65 1.12 97 1009.1
20260506093051 8 2 9.7 17.7 0.08 1.63 1.09 98 1009.0
20260506092055 7 7 11.3 17.7 0.08 1.63 1.09 98 1008.9
20260506091056 7 4 11.3 22.5 0.08 1.60 1.09 98 1008.9
20260506090101 8 357 11.3 19.3 0.10 1.63 1.09 98 1008.8
20260506085059 7 359 12.9 19.3 0.10 1.60 1.07 98 1008.7
20260506084053 7 357 12.9 22.5 0.08 1.57 1.04 98 1008.6
20260506083051 7 352 14.5 22.5 0.05 1.55 1.02 98 1008.5
20260506082023 7 352 12.9 17.7 0.08 1.55 1.02 98 1008.5
20260506073056 7 346 14.5 19.3 0.05 1.50 0.97 98 1008.2
20260506072054 7 349 14.5 20.9 0.05 1.50 0.97 98 1008.1
20260506071057 7 346 14.5 19.3 0.05 1.47 0.94 98 1008.1
20260506062055 7 345 12.9 19.3 0.15 1.45 0.89 98 1007.9
20260506061054 7 344 12.9 17.7 0.20 1.45 0.89 98 1007.9
20260506051056 7 349 12.9 17.7 0.18 1.32 0.74 97 1007.9
20260506044055 7 353 11.3 16.1 0.13 1.30 0.64 97 1007.8
20260506043058 7 354 12.9 16.1 0.10 1.32 0.61 97 1007.8
20260506042053 7 355 11.3 19.3 0.08 1.32 0.61 97 1007.7
20260506041054 7 345 14.5 20.9 0.08 1.30 0.58 96 1007.7
20260506040057 7 353 11.3 16.1 0.08 1.30 0.56 96 1007.7
20260506035057 7 276 11.3 19.3 0.05 1.27 0.53 96 1007.7
20260506034058 7 4 12.9 19.3 0.05 1.27 0.53 96 1007.8
20260506032054 7 6 12.9 20.9 0.05 1.27 0.51 96 1007.7
20260506031056 7 9 11.3 17.7 0.08 1.27 0.51 96 1007.8
20260506030053 7 12 11.3 19.3 0.08 1.24 0.51 96 1007.8
20260506025055 7 8 12.9 22.5 0.05 1.22 0.48 97 1007.8
20260506023058 7 15 12.9 20.9 0.08 1.22 0.48 97 1007.9
20260506022056 7 13 14.5 27.4 0.08 1.19 0.46 97 1007.9
20260506020056 8 19 11.3 19.3 0.08 1.17 0.43 97 1008.0
20260506015057 8 28 9.7 16.1 0.05 1.17 0.43 97 1008.0
20260506014055 8 12 9.7 19.3 0.08 1.17 0.43 97 1008.0
20260506012055 8 22 11.3 20.9 0.13 1.14 0.41 97 1008.0
20260506011055 8 16 11.3 17.7 0.13 1.12 0.38 97 1008.0
20260506010051 8 21 11.3 19.3 0.15 1.12 0.38 97 1008.1
20260506005055 8 17 8.0 17.7 0.15 1.09 0.36 97 1008.1
20260506004056 8 25 9.7 17.7 0.15 1.09 0.36 97 1008.1
20260506003054 8 25 11.3 20.9 0.15 1.09 0.33 97 1008.2
20260506002058 8 15 11.3 19.3 0.15 1.07 0.33 97 1008.3
20260506001054 8 14 11.3 17.7 0.15 1.02 0.28 97 1008.3
20260506000105 8 19 9.7 16.1 0.15 0.99 0.25 97 1008.4
20260505235105 8 21 9.7 17.7 0.15 0.99 0.23 97 1008.5
20260505233106 8 27 9.7 16.1 0.15 0.94 0.20 97 1008.6
20260505232107 8 23 9.7 17.7 0.15 0.91 0.18 97 1008.6
20260505231108 8 25 11.3 24.1 0.15 0.89 0.15 97 1008.7
20260505230109 8 34 11.3 20.9 0.15 0.89 0.15 97 1008.7
20260505225107 8 37 11.3 22.5 0.15 0.86 0.13 97 1008.8
20260505224105 8 34 9.7 17.7 0.15 0.84 0.10 97 1008.8
20260505223106 8 34 11.3 17.7 0.13 0.79 0.05 97 1008.8
20260505221109 8 32 9.7 19.3 0.13 0.76 0.03 97 1008.9
20260505220104 8 31 11.3 17.7 0.15 0.76 0.03 97 1008.9
20260505215114 8 31 12.9 19.3 0.15 0.74 0.74 97 1009.0
20260505214114 8 29 9.7 16.1 0.15 0.71 0.71 97 1009.0
20260505213113 8 22 11.3 19.3 0.15 0.71 0.71 97 1009.1
20260505211111 8 30 11.3 20.9 0.13 0.66 0.66 98 1009.1
20260505210112 8 21 11.3 20.9 0.13 0.64 0.64 98 1009.2
20260505205111 8 26 11.3 20.9 0.13 0.61 0.61 98 1009.2
20260505204112 8 24 9.7 19.3 0.13 0.61 0.61 98 1009.2
20260505203116 8 29 9.7 16.1 0.13 0.58 0.58 98 1009.2
20260505202113 8 26 11.3 24.1 0.13 0.56 0.56 98 1009.2
20260505200108 9 22 9.7 14.5 0.13 0.53 0.53 98 1009.1
20260505195111 9 23 11.3 17.7 0.13 0.51 0.51 98 1009.0
20260505194113 9 24 9.7 17.7 0.13 0.51 0.51 98 1009.0
20260505193116 9 26 12.9 19.3 0.10 0.48 0.48 98 1008.8
20260505191114 9 24 9.7 16.1 0.10 0.43 0.43 98 1008.8
20260505190110 9 27 9.7 17.7 0.13 0.43 0.43 98 1008.7